www.pogodaiklimat.ru

Погода и климат >> Архив погоды >> Австралия >> Западная Австралия >> Ньюман


ПОГОДА в Ньюмане

  • Прогноз погоды в Ньюмане
  • Монитор погоды в Ньюмане

АРХИВ ПОГОДЫ в Ньюмане

Время (UTC), дата Ветер
(напр.,м/с)
 
Видим.   Явления Облачность Т
(С)
Тd
(С)
f
(%)
Тe
(С)
Тes
(С)
Комфортность P
(гПа)
Po
(гПа)
Тmin
(С)
Tmax
(С)
R
(мм)
R24
(мм)
S
(см)
07 13.02 В 3 н/о н/о +40.7 +1.7 9 +37 +37 очень
жарко
1006.4 949.4
09 13.02 СЗ 3 н/о н/о +40.6 +1.6 9 +37 +37 очень
жарко
1005.5 948.6
10 13.02 С 5 н/о 3/0
[]
+38.8 +9.4 17 +37 +37 очень
жарко
1006.1 949.1
12 13.02 С 5 н/о н/о +35.9 +12.2 24 +36 +36 очень
жарко
1007.9 950.8
13 13.02 С 5 н/о 3/0
[]
+34.5 +12.2 26 +35 +35 очень
жарко
1008.4 951.3 +42.6
15 13.02 С 4 н/о н/о +33.1 +12.1 28 +33 +33 жарко 1008.4 951.3
16 13.02 СЗ 6 н/о 9/0
[]
+32.4 +12.1 29 +33 +33 жарко 1008.1 951.0
18 13.02 С 3 н/о н/о +31.5 +13.3 33 +33 +33 жарко 1008.1 951.0
19 13.02 С 3 н/о н/о +30.4 +13.7 36 +32 +32 жарко 1007.9 950.8
21 13.02 СВ 2 н/о н/о +28.9 +15.4 44 +32 +32 душно 1007.5 950.5
22 13.02 СВ 3 н/о 9/0
[]
+28.9 +16.1 46 +32 +32 душно 1008.0 950.9
00 14.02 С 6 н/о н/о +30.4 +17.1 45 +34 +34 очень
душно
1009.8 952.6
01 14.02 С 5 н/о н/о +32.0 +17.1 41 +36 +36 очень
душно
1010.1 952.9 +28.9
03 14.02 С 5 н/о н/о +36.5 +15.6 29 +38 +38 очень
душно
1009.6 952.4
04 14.02 СЗ 4 н/о н/о +37.7 +13.7 24 +38 +38 очень
жарко
1008.8 951.7
06 14.02 СВ 5 н/о н/о +38.5 +13.0 22 +38 +38 очень
жарко
1006.9 949.9
07 14.02 СВ 7 н/о н/о +36.8 +14.7 27 +38 +38 очень
душно
1006.0 949.0
09 14.02 В 7 н/о н/о +28.7 +18.2 53 +33 +33 очень
душно
1006.9 949.9
10 14.02 С 5 н/о {туман} 10/0
[]
+31.1 +15.9 40 +34 +34 душно 1008.9 951.8
12 14.02 ЮВ 2 н/о н/о +28.5 +19.4 58 +34 +34 очень
душно
1011.1 953.9
13 14.02 В 4 н/о {туман} 10/0
[]
+29.3 +17.5 49 +33 +33 душно 1011.4 954.1 +40.9
15 14.02 В 5 н/о н/о +26.4 +17.7 59 +31 +31 душно 1010.7 953.5
16 14.02 СВ 3 н/о {туман} 10/0
[]
+26.9 +17.7 57 +31 +31 душно 1011.0 953.8
18 14.02 СЗ 2 н/о н/о +24.8 +18.7 69 +30 +30 душно 1010.2 953.0
19 14.02 СЗ 3 н/о {туман} н/о +25.0 +17.7 64 +29 +29 душно 1009.8 952.6
21 14.02 ЮВ 3 н/о н/о +23.4 +19.3 78 +30 +30 очень
душно
1010.1 952.9
22 14.02 Ю 2 н/о н/о +22.8 +19.8 83 +29 +29 очень
душно
1010.7 953.5
00 15.02 ЮЗ 2 н/о н/о +28.1 +18.2 55 +33 +33 очень
душно
1012.1 954.8
01 15.02 штиль 0 н/о н/о +31.5 +18.1 45 +36 +36 очень
душно
1012.3 955.0 +20.9
03 15.02 ЮЗ 3 н/о н/о +35.9 +14.0 27 +37 +37 душно 1011.4 954.1
04 15.02 Ю 2 н/о н/о +37.4 +12.8 23 +37 +37 очень
жарко
1010.4 953.2
06 15.02 ЮЗ 3 н/о н/о +40.8 +10.9 17 +40 +40 очень
жарко
1008.7 951.6
07 15.02 Ю 3 н/о н/о +40.4 +9.7 16 +39 +39 очень
жарко
1008.2 951.1
09 15.02 СЗ 2 н/о н/о +40.9 +7.1 13 +38 +38 очень
жарко
1007.9 950.8
10 15.02 СВ 5 н/о н/о +38.3 +9.0 17 +37 +37 очень
жарко
1008.4 951.3
12 15.02 С 1 н/о н/о +34.5 +13.3 28 +35 +35 очень
жарко
1009.6 952.4
13 15.02 штиль 0 н/о н/о +31.8 +18.4 45 +37 +37 очень
душно
1010.1 952.9 +41.8
15 15.02 штиль 0 н/о н/о +30.2 +19.3 52 +36 +36 очень
душно
1009.9 952.7
16 15.02 штиль 0 н/о 10/0
[]
+30.3 +18.1 48 +35 +35 очень
душно
1009.6 952.4
18 15.02 ЮЗ 2 н/о н/о +29.9 +16.0 43 +33 +33 душно 1008.6 951.5
19 15.02 ЮЗ 2 н/о 10/0
[]
+28.7 +16.6 48 +32 +32 душно 1008.5 951.4
21 15.02 З 2 н/о н/о +26.5 +14.6 48 +29 +29 жарко 1009.3 952.2
22 15.02 ЮЗ 3 н/о н/о +26.2 +11.5 40 +27 +27 жарко 1009.9 952.7
00 16.02 ЮВ 3 н/о н/о +31.6 +7.3 22 +30 +30 жарко 1011.0 953.8
01 16.02 В 5 н/о н/о +36.5 +5.7 15 +34 +34 очень
жарко
1011.0 953.8 +25.7
03 16.02 СВ 4 н/о н/о +40.1 +1.2 9 +36 +36 очень
жарко
1010.0 952.8
04 16.02 СВ 4 н/о н/о +40.7 0.0 8 +37 +37 очень
жарко
1009.0 951.9
06 16.02 СВ 4 н/о н/о +41.8 +0.8 8 +38 +38 очень
жарко
1007.3 950.3
07 16.02 ЮВ 3 н/о н/о +42.6 +1.4 8 +39 +39 очень
жарко
1006.6 949.6
09 16.02 В 2 н/о н/о +42.3 +1.2 8 +39 +39 очень
жарко
1006.0 949.0
10 16.02 ЮЗ 3 н/о 1/0
[]
+41.3 +2.1 9 +38 +38 очень
жарко
1006.1 949.1
12 16.02 З 2 н/о н/о +38.5 +4.1 12 +35 +35 очень
жарко
1007.2 950.2
13 16.02 СВ 1 н/о 5/0
[]
+36.7 +10.1 20 +35 +35 очень
жарко
1007.5 950.5 +43.3
15 16.02 В 3 н/о н/о +35.0 +10.1 22 +34 +34 очень
жарко
1007.3 950.3
16 16.02 Ю 2 н/о 10/0
[]
+33.7 +11.5 26 +34 +34 очень
жарко
1006.9 949.9
18 16.02 ЮВ 4 н/о н/о +34.3 +2.0 13 +31 +31 жарко 1006.8 949.8
19 16.02 Ю 2 н/о 3/0
[]
+30.9 +5.3 20 +29 +29 жарко 1006.8 949.8
21 16.02 З 2 н/о н/о +26.8 +7.8 30 +27 +27 жарко 1007.0 950.0
22 16.02 З 3 н/о н/о +26.8 +7.8 30 +27 +27 жарко 1007.4 950.4
00 17.02 ЮЗ 3 н/о н/о +33.4 +4.2 16 +31 +31 жарко 1008.0 950.9
01 17.02 Ю 4 н/о н/о +36.8 +1.5 11 +33 +33 жарко 1008.0 950.9 +26.5
03 17.02 ЮВ 4 н/о н/о +42.1 -0.8 7 +38 +38 очень
жарко
1006.7 949.7
04 17.02 Ю 5 н/о н/о +41.7 -1.1 7 +38 +38 очень
жарко
1005.8 948.9
06 17.02 В 4 н/о н/о +42.7 -0.4 7 +39 +39 очень
жарко
1004.2 947.3
07 17.02 Ю 4 н/о н/о +43.7 -1.7 6 +40 +40 очень
жарко
1003.5 946.7
09 17.02 СЗ 2 н/о н/о +43.2 -2.1 6 +39 +39 очень
жарко
1002.7 945.9
10 17.02 ЮЗ 4 н/о н/о +41.7 -1.1 7 +38 +38 очень
жарко
1002.8 946.0
12 17.02 ЮЗ 3 н/о н/о +36.6 +2.6 12 +33 +33 жарко 1004.2 947.3
13 17.02 ЮЗ 3 н/о 10/0
[]
+35.9 +4.2 14 +33 +33 жарко 1004.5 947.6 +44.6
15 17.02 ЮЗ 3 н/о н/о +34.8 +4.4 15 +32 +32 жарко 1004.6 947.7
16 17.02 С 3 н/о 10/0
[]
+33.7 +5.3 17 +31 +31 жарко 1004.7 947.8
18 17.02 штиль 0 н/о н/о +30.6 +5.1 20 +29 +29 жарко 1004.3 947.4
19 17.02 З 2 н/о н/о +28.7 +6.1 24 +28 +28 жарко 1004.2 947.3
21 17.02 З 3 н/о н/о +26.4 +5.4 26 +26 +26 жарко 1004.7 947.8
22 17.02 ЮЗ 3 н/о 3/0
[]
+26.6 +3.8 23 +25 +26 комфорт 1005.3 948.4
00 18.02 ЮЗ 3 н/о н/о +31.2 +4.9 19 +29 +29 жарко 1006.7 949.7
01 18.02 Ю 3 н/о н/о +35.1 +1.5 12 +32 +32 жарко 1006.7 949.7 +26.2
03 18.02 ЮЗ 3 н/о н/о +39.5 +0.8 9 +36 +36 очень
жарко
1006.2 949.2
04 18.02 Ю 5 н/о н/о +41.4 +0.5 8 +38 +38 очень
жарко
1005.4 948.5
06 18.02 ЮЗ 5 н/о н/о +43.4 +0.1 7 +40 +40 очень
жарко
1003.7 946.9
07 18.02 ЮЗ 5 н/о н/о +44.2 -1.4 6 +40 +40 очень
жарко
1003.2 946.4
09 18.02 Ю 3 н/о н/о +42.2 -0.7 7 +38 +38 очень
жарко
1002.8 946.0
10 18.02 ЮЗ 3 н/о н/о +41.4 +0.5 8 +38 +38 очень
жарко
1003.1 946.3
12 18.02 Ю 2 н/о н/о +36.0 +9.5 20 +35 +35 очень
жарко
1004.2 947.3
13 18.02 Ю 2 н/о 10/0
[]
+35.9 +6.2 16 +33 +33 жарко 1005.0 948.1 +44.6
15 18.02 СВ 4 н/о н/о +37.3 +0.6 10 +34 +34 очень
жарко
1006.0 949.0
16 18.02 В 3 н/о 6/0
[]
+35.9 +5.2 15 +33 +33 жарко 1005.5 948.6
18 18.02 СВ 3 н/о н/о +31.5 +12.3 31 +32 +32 жарко 1005.0 948.1
19 18.02 В 3 н/о н/о +29.8 +11.8 33 +30 +30 жарко 1005.0 948.1
21 18.02 СВ 4 н/о н/о +28.7 +13.4 39 +30 +30 жарко 1005.6 948.7
22 18.02 СВ 3 н/о 10/0
[]
+28.5 +16.7 49 +32 +32 душно 1006.2 949.2
00 19.02 С 6 н/о н/о +31.5 +15.9 39 +34 +34 душно 1008.0 950.9
01 19.02 С 5 н/о н/о +33.2 +15.2 34 +35 +35 душно 1008.4 951.3 +28.2
03 19.02 С 5 н/о н/о +36.0 +14.6 28 +37 +37 душно 1007.9 950.8
04 19.02 С 5 н/о н/о +37.2 +14.5 26 +38 +38 душно 1007.3 950.3
06 19.02 С 3 н/о н/о +38.5 +10.0 18 +37 +37 очень
жарко
1006.5 949.5
07 19.02 З 2 н/о н/о +39.8 +8.3 15 +38 +38 очень
жарко
1005.7 948.8
09 19.02 ЮЗ 4 н/о н/о +38.1 +4.9 13 +35 +35 очень
жарко
1005.4 948.5
10 19.02 З 2 н/о 3/0
[]
+37.9 +3.6 12 +35 +35 очень
жарко
1005.4 948.5
12 19.02 СВ 3 н/о н/о +34.3 +10.2 23 +33 +33 жарко 1008.3 951.2
13 19.02 СВ 5 н/о 9/0
[]
+33.0 +11.5 27 +33 +33 жарко 1008.8 951.7 +40.8
15 19.02 С 6 н/о н/о +31.7 +12.0 30 +32 +32 жарко 1009.9 952.7
16 19.02 С 4 н/о 8/0
[]
+30.8 +12.2 32 +31 +31 жарко 1009.5 952.3
18 19.02 СВ 2 н/о н/о +29.3 +12.7 36 +30 +30 жарко 1007.9 950.8
19 19.02 З 3 н/о н/о +28.2 +12.1 37 +29 +29 жарко 1007.7 950.6
21 19.02 С 3 н/о н/о +26.5 +13.6 45 +29 +29 жарко 1008.5 951.4
22 19.02 СВ 4 н/о н/о +27.2 +13.2 42 +29 +29 жарко 1009.1 952.0
00 20.02 С 5 н/о н/о +30.7 +13.0 34 +32 +32 жарко 1010.1 952.9
01 20.02 СЗ 5 н/о н/о +33.9 +12.3 27 +34 +34 очень
жарко
1010.2 953.0 +26.5
03 20.02 С 4 н/о н/о +36.5 +9.2 19 +35 +35 очень
жарко
1009.7 952.5
04 20.02 С 6 н/о н/о +37.7 +9.3 18 +36 +36 очень
жарко
1008.8 951.7

 

Местоположение метеостанции Ньюман (Западная Австралия, Австралия): широта -23.41 долгота 119.80 высота над уровнем моря 524 м.

В архиве по умолчанию представлена погода в Ньюмане за последнюю неделю. Архивные данные за месяц целиком и за предыдущие месяцы, начиная с января 2011 года, Вы можете получить, выбрав интересующий диапазон дат из раскрывающегося списка и нажав кнопку "Ввод!".


*Определитесь, кто Вы:
робот инопланетянин человек

Внимание! Время в таблицах - всемирное. Для получения местного времени необходимо прибавить поправку, которая равна 8 ч.

Смотрите также архив погоды в соседних городах и на ближайших метеорологических станциях:

Погода в Параберду (Западная Австралия, Австралия) (211 км)
Погода в Марбл-баре (Западная Австралия, Австралия) (248 км)
Погода в Телфере (Западная Австралия, Австралия) (311 км)
Погода в Порт-Хедленде (Западная Австралия, Австралия) (360 км)
Погода в Микатарре (Западная Австралия, Австралия) (378 км)
Погода в Роборне (Западная Австралия, Австралия) (403 км)
Погода в Мандоре (Западная Австралия, Австралия) (423 км)
Погода в Каррате (Западная Австралия, Австралия) (432 км)
Погода в Марди (Западная Австралия, Австралия) (466 км)
Погода в Леинстере (Западная Австралия, Австралия) (502 км)

Пояснения к столбцам:

Ветер - указаны скорость ветра в м/с - средняя за 10 мин, порывы в срок и между сроками (в фигурных скобках) и направление, откуда дует ветер: С - северный, СВ - северо-восточный, В - восточный, ЮВ - юго-восточный, Ю - южный, ЮЗ - юго-западный, З - западный, СЗ - северо-западный.
Видимость - горизонтальная дальность видимости в метрах или километрах. При видимости от 1 до 10 км при отсутствии осадков обычно наблюдается дымка, при ухудшении видимости до 1 км и менее - туман. В сухую погоду видимость может ухудшаться дымом, пылью или мглою.
Явления - указаны атмосферные явления, наблюдавшиеся в срок или в последний час перед сроком; фигурными скобками обозначены явления, наблюдавшиеся между сроками (за 1-3 часа до срока); квадратными скобками обозначены град или гололедные отложения с указанием их диаметра в мм.
Облачность - указаны через наклонную черту общая и нижняя облачность в баллах и высота нижней границы облаков в метрах; квадратными скобками обозначены формы облаков: Ci - перистые, Cs - перисто-слоистые, Cc - перисто-кучевые, Ac - высококучевые, As - высокослоистые, Sc - слоисто-кучевые, Ns - слоисто-дождевые, Cu - кучевые, Cb - кучево-дождевые. Подробнее классификацию облаков см. в Атласе облаков (PDF).
T - Температура воздуха - температура, измеренная на высоте 2 м над землей.
Td - Температура точки росы - температура, при понижении до которой содержащийся в воздухе водяной пар достигнет насыщения.
f - Относительная влажность воздуха - влажноcть воздуха, измеренная на высоте 2 м над землей.
Te - Эффективная температура - температура, которую ощущает одетый по сезону человек в тени. Характеристика душности погоды. При расчете учитывается влияние влажности воздуха и скорости ветра на теплоощущения человека.
Tes - Эффективная температура на солнце - температура, которую ощущает человек, с поправкой на солнечный нагрев. Характеристика знойности погоды. Зависит от высоты солнца над горизонтом, облачности и скорости ветра. Ночью, в пасмурную погоду, а также при ветре 12 м/с и более поправка равна нулю.
P - Атмосферное давление - приведенное к уровню моря атмосферное давление.
Po - Атмосферное давление - измеренное на уровне метеостанции атмосферное давление.
Tmin - Минимальная температура - минимум температуры воздуха на высоте 2 м над землей.
Tmax - Максимальная температура - максимум температуры воздуха на высоте 2 м над землей.
R - Количество осадков - Количество выпавших осадков за период времени, мм. При наведении курсора мыши на число - период времени, за который выпало указанное количество осадков.
R24 - Количество осадков - Количество выпавших осадков за 24 часа, мм.
S - Снежный покров - Высота снежного покрова, см. При наведении курсора мыши на число - состояние снежного покрова и степень покрытия местности в баллах.